KINEIS-3C

Last updated on Fri Sep 11 2026 00:02:53 GMT+0000 (Coordinated Universal Time)

1 61220U 24172A 26253.50006429 .00001187 00000+0 19567-3 0 9998 2 61220 98.0414 342.4853 0000944 170.8649 189.2576 14.72308854105624
UTC large
Height (km)
Speed (km/s)
/
Latitude / Longitude
Inclination (degrees)
Orbital Period (minutes)
Azimuth
Elevation
Range (km)
Doppler Factor

Next 0 passes for location: London (51.5072 / 0.1276)

No passes found over London.
KINEIS-3C